JH5EWP-13 Weather Reports


time (UTC)temp
F
wind
direction
speed
knots
gust
knots
rain 1hr
in
rain 24hr
in
rain mn
in
humidity
%
barometer
mb
20260504080844 67 271 2.6 6.1 0.00 0.61 0.08 40 1003.6
20260504045345 66 261 7.0 14.8 0.00 0.96 0.08 44 1002.4
20260504043845 66 259 7.8 14.8 0.00 0.98 0.08 45 1002.6
20260504042344 66 241 7.8 15.6 0.00 0.98 0.08 44 1002.5
20260504040845 66 255 7.8 16.5 0.00 0.98 0.08 45 1002.2
20260504035345 65 272 8.7 18.2 0.00 0.98 0.08 46 1002.2
20260504033845 65 252 10.4 18.2 0.02 0.98 0.08 47 1002.2
20260504032345 66 267 9.6 20.0 0.02 0.98 0.08 44 1002.0
20260504030845 65 270 10.4 17.4 0.02 0.98 0.08 47 1001.9
20260504025345 65 259 9.6 16.5 0.02 0.98 0.08 48 1001.8
20260504023845 66 247 7.8 13.0 0.00 0.95 0.05 47 1002.1
20260504022345 65 241 6.1 10.4 0.00 0.95 0.05 48 1002.0
20260504020844 65 261 7.0 12.2 0.00 0.95 0.05 49 1002.0
20260504015344 64 256 5.2 12.2 0.00 0.95 0.05 48 1002.3
20260504013845 65 266 6.1 10.4 0.00 0.95 0.05 47 1001.9
20260504012345 65 270 7.8 11.3 0.00 0.95 0.05 46 1001.7
20260504010845 65 265 8.7 15.6 0.00 0.95 0.05 44 1001.8
20260504005345 64 291 9.6 16.5 0.05 0.95 0.05 47 1001.9
20260504003845 64 268 8.7 16.5 0.05 0.95 0.05 50 1001.3
20260504002345 63 278 9.6 14.8 0.05 0.95 0.05 60 1000.8
20260504000844 63 266 11.3 20.0 0.05 0.95 0.05 60 1000.8
20260503235344 64 276 7.8 14.8 0.00 0.89 0.00 55 1000.3
20260503233844 64 252 7.0 13.0 0.00 0.89 0.00 58 1000.1
20260503232344 64 258 7.0 13.0 0.00 0.89 0.00 60 999.8
20260503230844 64 264 6.1 13.0 0.00 0.89 0.00 59 999.8
20260503225344 64 263 4.3 10.4 0.00 0.89 0.00 60 999.4
20260503223846 64 270 4.3 7.8 0.00 0.89 0.00 61 999.4
20260503222345 64 252 3.5 7.8 0.00 0.89 0.00 62 999.5
20260503220844 64 228 2.6 5.2 0.00 0.89 0.00 64 999.1
20260503215344 62 232 5.2 10.4 0.00 0.89 0.00 70 999.2
20260503213844 62 244 5.2 9.6 0.00 0.89 0.00 70 998.4
20260503212344 61 270 4.3 8.7 0.00 0.89 0.00 70 998.3
20260503210844 61 284 5.2 10.4 0.00 0.89 0.00 70 998.2
20260503205344 61 233 5.2 10.4 0.00 0.89 0.00 70 997.9
20260503203844 61 243 4.3 7.8 0.00 0.89 0.00 70 997.8
20260503202346 61 222 5.2 12.2 0.00 0.89 0.00 68 997.1
20260503200846 61 239 5.2 12.2 0.00 0.89 0.00 68 997.2
20260503195346 61 258 5.2 10.4 0.00 0.89 0.00 70 997.3
20260503193845 61 246 6.1 10.4 0.00 0.89 0.00 68 997.1
20260503192345 62 263 6.1 13.0 0.00 0.89 0.00 68 996.9
20260503190845 61 210 3.5 7.0 0.00 0.89 0.00 74 996.9
20260503185345 61 239 3.5 8.7 0.00 0.89 0.00 78 996.6
20260503183845 61 236 3.5 7.8 0.00 0.89 0.00 76 996.7
20260503182345 61 223 4.3 7.8 0.00 0.89 0.00 75 996.6
20260503180845 61 256 3.5 7.8 0.00 0.89 0.00 75 996.7
20260503175345 61 236 4.3 7.8 0.00 0.89 0.00 74 996.6
20260503173845 61 248 4.3 10.4 0.00 0.89 0.00 77 996.7
20260503172344 62 251 5.2 8.7 0.00 0.89 0.00 76 996.6
20260503170844 62 265 5.2 9.6 0.00 0.89 0.00 76 996.2
20260503150845 62 212 5.2 11.3 0.00 0.89 0.00 83 995.3